Simultaneous Nadir Overpasses (SNOs) Predictions

Prediction of SNOs between NPP and TERRA Satellite Orbit:

Table of predicted SNOs for the next 14.0 days since TLE Epoch: 5/6/2023
Index Date (NPP) Time (NPP) Lat,Lon (NPP) SZA (NPP ) Date (TERRA) Time (TERRA) Lat,Lon (TERRA) SZA (TERRA ) Distance(km) Time Diff (sec)
1 05/06/2023 08:09:53 -71.18,-127.16 125.38 05/06/2023 08:11:05 -71.09,-126.56 125.49 23.80 72
2 05/06/2023 09:00:33 70.86, 40.68 54.28 05/06/2023 09:00:31 70.85, 40.73 54.27 2.27 2
3 05/06/2023 09:51:11 -70.56,-151.51 126.04 05/06/2023 09:49:58 -70.63,-151.94 125.96 17.45 73
4 05/08/2023 21:03:40 -70.93, 39.78 126.34 05/08/2023 21:04:37 -70.91, 39.78 126.36 2.18 57
5 05/08/2023 21:54:23 70.83,-152.73 53.55 05/08/2023 21:53:59 70.83,-152.69 53.55 1.88 24
6 05/11/2023
